Location: Aciu?a
(46.2833°N, 22.4500°E)
Time: 04:48:39
(UTC+00:00)

Spot 2 - Pass Details

Date: 25 October 2021
Orbit: 570 x 772 km, 98.7° (Epoch: 04 December)

Event Time Altitude Azimuth Distance (km) Brightness Sun altitude
Rises 16:39:58 0° 151° (SSE) 2,809 7.2 -13.3°
Reaches altitude 10° 16:42:06 10° 147° (SSE) 1,933 6.3 -13.7°
Maximum altitude 16:46:11 54° 70° (ENE) 760 4.1 -14.4°
Drops below altitude 10° 16:50:31 10° 354° (N) 2,054 6.8 -15.1°
Sets 16:52:50 0° 350° (N) 3,003 7.7 -15.5°
